Tracking 33094 objects as of 25-Jan-2026
HD Live streaming from Space Station
objects crossing your sky now

OBJECT A

Track OBJECT A now!
10-day predictions


NORAD ID: 45939
Int'l Code: 2020-051A
Perigee: 504.7 km
Apogee: 512.4 km
Inclination: 97.3 °
Period: 94.6 minutes
Semi major axis: 6879 km
RCS: Unknown
Launch date: July 25, 2020
Source: People's Republic of China (PRC)
Launch site: Taiyaun Space Center, China (TSC)
Your satellite tracking list
Your tracking list is empty




NASA's NSSDC Master Catalog

Two Line Element Set (TLE):
1 45939U 20051A   26025.19738097  .00007445  00000-0  33404-3 0  9994
2 45939  97.3019  97.4178 0005600 112.5740 247.6089 15.21462570305601
Source of the keplerian elements: AFSPC